Time,TemperatureF,DewpointF,PressureIn,WindDirection,WindDirectionDegrees,WindSpeedMPH,WindSpeedGustMPH,Humidity,HourlyPrecipIn,Conditions,Clouds,dailyrainin,SoftwareType,DateUTC
2013-07-07 00:08:00,74.6,74.0,30.09,SW,228,0.0,0.0,97,0.00,,,0.00,weatherlink.com 1.10,2013-07-07 04:08:00,
2013-07-07 00:23:00,74.3,74.0,30.08,SW,228,0.0,0.0,98,0.00,,,0.00,weatherlink.com 1.10,2013-07-07 04:23:00,
2013-07-07 00:38:00,73.8,73.0,30.08,SW,228,0.0,0.0,98,0.00,,,0.00,weatherlink.com 1.10,2013-07-07 04:38:00,
2013-07-07 00:53:00,73.3,73.0,30.08,SW,228,0.0,0.0,98,0.00,,,0.00,weatherlink.com 1.10,2013-07-07 04:53:00,
2013-07-07 01:08:00,73.4,73.0,30.09,SW,228,0.0,0.0,98,0.00,,,0.00,weatherlink.com 1.10,2013-07-07 05:08:00,
2013-07-07 01:23:00,73.2,73.0,30.08,SW,228,0.0,0.0,98,0.00,,,0.00,weatherlink.com 1.10,2013-07-07 05:23:00,
2013-07-07 01:38:00,72.9,72.0,30.07,SW,228,0.0,0.0,98,0.00,,,0.00,weatherlink.com 1.10,2013-07-07 05:38:00,
2013-07-07 01:53:00,72.7,72.0,30.07,SW,228,0.0,0.0,99,0.00,,,0.00,weatherlink.com 1.10,2013-07-07 05:53:00,
2013-07-07 02:08:00,72.5,72.0,30.07,SW,228,0.0,0.0,99,0.00,,,0.00,weatherlink.com 1.10,2013-07-07 06:08:00,
2013-07-07 02:23:00,72.3,72.0,30.06,SW,228,0.0,0.0,99,0.00,,,0.00,weatherlink.com 1.10,2013-07-07 06:23:00,
2013-07-07 02:38:00,72.0,72.0,30.05,SW,228,0.0,1.0,99,0.00,,,0.00,weatherlink.com 1.10,2013-07-07 06:38:00,
2013-07-07 02:53:00,71.5,71.0,30.05,SW,228,0.0,0.0,99,0.00,,,0.00,weatherlink.com 1.10,2013-07-07 06:53:00,
2013-07-07 03:08:00,71.3,71.0,30.05,SW,228,0.0,1.0,99,0.00,,,0.00,weatherlink.com 1.10,2013-07-07 07:08:00,
2013-07-07 03:23:00,71.0,71.0,30.05,SW,228,0.0,0.0,99,0.00,,,0.00,weatherlink.com 1.10,2013-07-07 07:23:00,
2013-07-07 03:38:00,71.0,71.0,30.05,SW,228,0.0,0.0,99,0.00,,,0.00,weatherlink.com 1.10,2013-07-07 07:38:00,
2013-07-07 03:53:00,70.6,70.0,30.05,SW,228,0.0,0.0,99,0.00,,,0.00,weatherlink.com 1.10,2013-07-07 07:53:00,
2013-07-07 04:08:00,70.2,70.0,30.04,SW,228,0.0,0.0,99,0.00,,,0.00,weatherlink.com 1.10,2013-07-07 08:08:00,
2013-07-07 04:23:00,69.9,70.0,30.04,SW,228,0.0,0.0,99,0.00,,,0.00,weatherlink.com 1.10,2013-07-07 08:23:00,
2013-07-07 04:38:00,69.6,69.0,30.04,SW,228,0.0,1.0,99,0.00,,,0.00,weatherlink.com 1.10,2013-07-07 08:38:00,
2013-07-07 04:53:00,69.3,69.0,30.04,SW,228,0.0,0.0,99,0.00,,,0.00,weatherlink.com 1.10,2013-07-07 08:53:00,
2013-07-07 05:08:00,69.0,69.0,30.04,SW,228,0.0,0.0,99,0.00,,,0.00,weatherlink.com 1.10,2013-07-07 09:08:00,
2013-07-07 05:23:00,68.7,68.0,30.05,SW,228,0.0,0.0,99,0.00,,,0.00,weatherlink.com 1.10,2013-07-07 09:23:00,
2013-07-07 05:38:00,68.6,68.0,30.05,SW,228,0.0,0.0,99,0.00,,,0.00,weatherlink.com 1.10,2013-07-07 09:38:00,
2013-07-07 05:53:00,68.6,68.0,30.05,SW,228,0.0,0.0,99,0.00,,,0.00,weatherlink.com 1.10,2013-07-07 09:53:00,
2013-07-07 06:08:00,68.6,68.0,30.05,SW,228,0.0,0.0,99,0.00,,,0.00,weatherlink.com 1.10,2013-07-07 10:08:00,
2013-07-07 06:23:00,68.8,69.0,30.05,SW,228,0.0,0.0,99,0.00,,,0.00,weatherlink.com 1.10,2013-07-07 10:23:00,
2013-07-07 06:38:00,69.2,69.0,30.06,SW,228,0.0,0.0,99,0.00,,,0.00,weatherlink.com 1.10,2013-07-07 10:38:00,
2013-07-07 06:53:00,70.1,70.0,30.06,SW,228,0.0,0.0,100,0.00,,,0.00,weatherlink.com 1.10,2013-07-07 10:53:00,
2013-07-07 07:08:00,71.2,71.0,30.06,SW,228,0.0,0.0,99,0.00,,,0.00,weatherlink.com 1.10,2013-07-07 11:08:00,
2013-07-07 07:24:00,72.8,73.0,30.05,SW,228,0.0,1.0,99,0.00,,,0.00,weatherlink.com 1.10,2013-07-07 11:24:00,
2013-07-07 07:39:00,74.8,74.0,30.05,SW,228,0.0,1.0,97,0.00,,,0.00,weatherlink.com 1.10,2013-07-07 11:39:00,
2013-07-07 07:54:00,76.1,73.0,30.06,SW,228,3.0,5.0,91,0.00,,,0.00,weatherlink.com 1.10,2013-07-07 11:54:00,
2013-07-07 08:09:00,77.2,74.0,30.06,SW,228,0.0,1.0,88,0.00,,,0.00,weatherlink.com 1.10,2013-07-07 12:09:00,
2013-07-07 08:24:00,78.2,74.0,30.06,SW,228,0.0,2.0,86,0.00,,,0.00,weatherlink.com 1.10,2013-07-07 12:24:00,
2013-07-07 08:39:00,78.4,74.0,30.06,SW,228,0.0,5.0,85,0.00,,,0.00,weatherlink.com 1.10,2013-07-07 12:39:00,
2013-07-07 08:54:00,79.2,74.0,30.06,SW,228,0.0,4.0,85,0.00,,,0.00,weatherlink.com 1.10,2013-07-07 12:54:00,
2013-07-07 09:09:00,80.3,75.0,30.05,SW,228,3.0,4.0,84,0.00,,,0.00,weatherlink.com 1.10,2013-07-07 13:09:00,
2013-07-07 09:24:00,80.8,75.0,30.05,NW,306,0.0,4.0,82,0.00,,,0.00,weatherlink.com 1.10,2013-07-07 13:24:00,
2013-07-07 09:39:00,81.7,74.0,30.05,WSW,252,3.0,6.0,77,0.00,,,0.00,weatherlink.com 1.10,2013-07-07 13:39:00,
2013-07-07 09:54:00,82.2,75.0,30.05,WSW,238,0.0,5.0,79,0.00,,,0.00,weatherlink.com 1.10,2013-07-07 13:54:00,
2013-07-07 10:09:00,82.9,75.0,30.05,West,277,2.0,8.0,76,0.00,,,0.00,weatherlink.com 1.10,2013-07-07 14:09:00,
2013-07-07 10:24:00,83.6,76.0,30.05,WNW,294,3.0,6.0,77,0.00,,,0.00,weatherlink.com 1.10,2013-07-07 14:24:00,
2013-07-07 10:39:00,84.0,76.0,30.04,NW,315,2.0,6.0,76,0.00,,,0.00,weatherlink.com 1.10,2013-07-07 14:39:00,
2013-07-07 10:54:00,84.3,75.0,30.04,NNW,329,0.0,7.0,73,0.00,,,0.00,weatherlink.com 1.10,2013-07-07 14:54:00,
2013-07-07 11:09:00,84.9,75.0,30.04,WNW,288,1.0,5.0,73,0.00,,,0.00,weatherlink.com 1.10,2013-07-07 15:09:00,
2013-07-07 11:24:00,85.0,76.0,30.04,West,265,5.0,7.0,74,0.00,,,0.00,weatherlink.com 1.10,2013-07-07 15:24:00,
2013-07-07 11:39:00,85.8,77.0,30.04,NW,324,0.0,6.0,75,0.00,,,0.00,weatherlink.com 1.10,2013-07-07 15:39:00,
2013-07-07 11:54:00,85.9,75.0,30.03,SW,217,1.0,7.0,70,0.00,,,0.00,weatherlink.com 1.10,2013-07-07 15:54:00,
2013-07-07 12:09:00,86.4,76.0,30.03,NW,307,4.0,7.0,72,0.00,,,0.00,weatherlink.com 1.10,2013-07-07 16:09:00,
2013-07-07 12:25:00,85.7,76.0,30.03,West,261,2.0,5.0,72,0.00,,,0.00,weatherlink.com 1.10,2013-07-07 16:25:00,
2013-07-07 12:40:00,86.4,77.0,30.03,West,262,1.0,7.0,73,0.00,,,0.00,weatherlink.com 1.10,2013-07-07 16:40:00,
2013-07-07 12:55:00,87.0,77.0,30.03,SW,215,4.0,7.0,71,0.00,,,0.00,weatherlink.com 1.10,2013-07-07 16:55:00,
2013-07-07 13:10:00,87.3,77.0,30.02,SW,217,3.0,8.0,72,0.00,,,0.00,weatherlink.com 1.10,2013-07-07 17:10:00,
2013-07-07 13:25:00,87.8,76.0,30.02,West,274,6.0,10.0,68,0.00,,,0.00,weatherlink.com 1.10,2013-07-07 17:25:00,
2013-07-07 13:40:00,86.4,75.0,30.02,WNW,300,0.0,9.0,68,0.00,,,0.00,weatherlink.com 1.10,2013-07-07 17:40:00,
2013-07-07 13:55:00,87.7,75.0,30.01,WSW,246,0.0,7.0,67,0.00,,,0.00,weatherlink.com 1.10,2013-07-07 17:55:00,
2013-07-07 14:10:00,88.4,77.0,30.00,West,281,0.0,7.0,69,0.00,,,0.00,weatherlink.com 1.10,2013-07-07 18:10:00,
2013-07-07 14:25:00,87.2,75.0,30.00,West,275,0.0,6.0,68,0.00,,,0.00,weatherlink.com 1.10,2013-07-07 18:25:00,
2013-07-07 14:40:00,88.5,76.0,29.99,WNW,290,2.0,10.0,67,0.00,,,0.00,weatherlink.com 1.10,2013-07-07 18:40:00,
2013-07-07 14:55:00,88.4,77.0,29.98,WSW,254,4.0,7.0,68,0.00,,,0.00,weatherlink.com 1.10,2013-07-07 18:55:00,
2013-07-07 15:10:00,88.1,74.0,29.98,WNW,299,6.0,7.0,64,0.00,,,0.00,weatherlink.com 1.10,2013-07-07 19:10:00,
2013-07-07 15:25:00,88.7,76.0,29.98,WSW,252,2.0,10.0,66,0.00,,,0.00,weatherlink.com 1.10,2013-07-07 19:25:00,
2013-07-07 15:40:00,89.9,76.0,29.98,SW,236,3.0,8.0,64,0.00,,,0.00,weatherlink.com 1.10,2013-07-07 19:40:00,
2013-07-07 15:55:00,88.1,74.0,29.97,WNW,292,5.0,11.0,64,0.00,,,0.00,weatherlink.com 1.10,2013-07-07 19:55:00,
2013-07-07 16:10:00,88.5,76.0,29.96,West,260,0.0,10.0,67,0.00,,,0.00,weatherlink.com 1.10,2013-07-07 20:10:00,
2013-07-07 16:25:00,88.7,75.0,29.96,WSW,239,2.0,9.0,64,0.00,,,0.00,weatherlink.com 1.10,2013-07-07 20:25:00,
2013-07-07 16:40:00,87.5,76.0,29.96,SW,214,0.0,9.0,68,0.00,,,0.00,weatherlink.com 1.10,2013-07-07 20:40:00,
2013-07-07 16:55:00,88.6,74.0,29.96,West,281,4.0,10.0,63,0.00,,,0.00,weatherlink.com 1.10,2013-07-07 20:55:00,
2013-07-07 17:10:00,88.6,74.0,29.96,West,275,6.0,9.0,62,0.00,,,0.00,weatherlink.com 1.10,2013-07-07 21:10:00,
2013-07-07 17:25:00,88.7,74.0,29.96,WNW,286,6.0,12.0,63,0.00,,,0.00,weatherlink.com 1.10,2013-07-07 21:25:00,
2013-07-07 17:40:00,88.2,75.0,29.96,SW,235,0.0,7.0,66,0.00,,,0.00,weatherlink.com 1.10,2013-07-07 21:40:00,
2013-07-07 17:55:00,87.8,75.0,29.96,West,281,1.0,6.0,66,0.00,,,0.00,weatherlink.com 1.10,2013-07-07 21:55:00,
2013-07-07 18:10:00,81.6,69.0,29.99,North,11,13.0,19.0,66,0.00,,,0.00,weatherlink.com 1.10,2013-07-07 22:10:00,
2013-07-07 18:25:00,78.4,68.0,30.01,West,279,10.0,20.0,70,0.00,,,0.00,weatherlink.com 1.10,2013-07-07 22:25:00,
2013-07-07 18:40:00,74.7,69.0,30.00,NNW,333,6.0,13.0,82,0.01,,,0.01,weatherlink.com 1.10,2013-07-07 22:40:00,
2013-07-07 18:55:00,71.2,69.0,29.99,NW,319,0.0,12.0,91,0.05,,,0.05,weatherlink.com 1.10,2013-07-07 22:55:00,
2013-07-07 19:10:00,71.1,69.0,30.00,SW,225,0.0,5.0,94,0.05,,,0.05,weatherlink.com 1.10,2013-07-07 23:10:00,
2013-07-07 19:25:00,71.5,69.0,29.99,South,186,0.0,4.0,93,0.05,,,0.05,weatherlink.com 1.10,2013-07-07 23:25:00,
2013-07-07 19:40:00,71.2,69.0,30.00,South,189,0.0,3.0,93,0.04,,,0.05,weatherlink.com 1.10,2013-07-07 23:40:00,
2013-07-07 19:55:00,71.2,69.0,29.99,South,189,0.0,1.0,93,0.00,,,0.05,weatherlink.com 1.10,2013-07-07 23:55:00,
2013-07-07 20:10:00,71.1,69.0,29.99,South,189,0.0,1.0,94,0.00,,,0.05,weatherlink.com 1.10,2013-07-08 00:10:00,
2013-07-07 20:25:00,71.3,70.0,30.00,South,189,0.0,3.0,94,0.00,,,0.05,weatherlink.com 1.10,2013-07-08 00:25:00,
2013-07-07 20:40:00,71.3,70.0,30.00,SSW,194,0.0,3.0,94,0.00,,,0.05,weatherlink.com 1.10,2013-07-08 00:40:00,
2013-07-07 20:55:00,71.2,69.0,30.01,SSW,205,0.0,3.0,94,0.00,,,0.05,weatherlink.com 1.10,2013-07-08 00:55:00,
2013-07-07 21:10:00,71.0,70.0,30.01,SSW,205,0.0,1.0,95,0.00,,,0.05,weatherlink.com 1.10,2013-07-08 01:10:00,
2013-07-07 21:25:00,70.8,69.0,30.00,SSW,205,0.0,1.0,95,0.00,,,0.05,weatherlink.com 1.10,2013-07-08 01:25:00,
2013-07-07 21:40:00,70.5,69.0,30.02,SSW,205,0.0,1.0,96,0.00,,,0.05,weatherlink.com 1.10,2013-07-08 01:40:00,
2013-07-07 21:55:00,70.4,69.0,30.03,SSW,205,0.0,1.0,96,0.00,,,0.05,weatherlink.com 1.10,2013-07-08 01:55:00,
2013-07-07 22:10:00,70.2,69.0,30.03,SSW,205,0.0,1.0,96,0.00,,,0.05,weatherlink.com 1.10,2013-07-08 02:10:00,
2013-07-07 22:25:00,70.2,69.0,30.03,SSW,205,0.0,1.0,96,0.00,,,0.05,weatherlink.com 1.10,2013-07-08 02:25:00,
2013-07-07 22:40:00,70.2,69.0,30.03,SSW,205,0.0,1.0,96,0.00,,,0.05,weatherlink.com 1.10,2013-07-08 02:40:00,
2013-07-07 22:55:00,70.0,69.0,30.03,SSW,205,0.0,3.0,97,0.00,,,0.05,weatherlink.com 1.10,2013-07-08 02:55:00,
2013-07-07 23:10:00,69.7,69.0,30.03,SSW,205,0.0,1.0,97,0.00,,,0.05,weatherlink.com 1.10,2013-07-08 03:10:00,
2013-07-07 23:25:00,69.2,68.0,30.03,SSW,205,0.0,3.0,97,0.00,,,0.05,weatherlink.com 1.10,2013-07-08 03:25:00,
2013-07-07 23:40:00,69.0,68.0,30.03,SSW,205,0.0,0.0,97,0.00,,,0.05,weatherlink.com 1.10,2013-07-08 03:40:00,
2013-07-07 23:55:00,68.8,68.0,30.03,SSW,205,1.0,1.0,97,0.00,,,0.05,weatherlink.com 1.10,2013-07-08 03:55:00,